Time,TemperatureF,DewpointF,PressureIn,WindDirection,WindDirectionDegrees,WindSpeedMPH,WindSpeedGustMPH,Humidity,HourlyPrecipIn,Conditions,Clouds,dailyrainin,SoftwareType,DateUTC
2014-01-02 00:14:00,14.0,8.0,30.27,South,180,4.0,5.0,81,0.00,,,0.00,TxWx,2014-01-02 05:14:00,
2014-01-02 00:19:00,14.0,8.0,30.27,SSE,157,3.0,5.0,82,0.00,,,0.00,TxWx,2014-01-02 05:19:00,
2014-01-02 00:25:00,14.0,9.0,30.27,South,180,5.0,5.0,82,0.00,,,0.00,TxWx,2014-01-02 05:25:00,
2014-01-02 00:30:00,14.0,9.0,30.26,SSE,157,4.0,5.0,83,0.00,,,0.00,TxWx,2014-01-02 05:30:00,
2014-01-02 00:35:00,13.0,8.0,30.26,South,180,4.0,6.0,83,0.00,,,0.00,TxWx,2014-01-02 05:35:00,
2014-01-02 00:40:00,13.0,8.0,30.26,South,180,7.0,8.0,84,0.00,,,0.00,TxWx,2014-01-02 05:40:00,
2014-01-02 00:45:00,13.0,8.0,30.26,SE,135,5.0,6.0,85,0.00,,,0.00,TxWx,2014-01-02 05:45:00,
2014-01-02 00:50:00,13.0,8.0,30.26,SSE,157,6.0,6.0,86,0.00,,,0.00,TxWx,2014-01-02 05:50:00,
2014-01-02 00:55:00,13.0,9.0,30.26,SSE,157,5.0,7.0,86,0.00,,,0.00,TxWx,2014-01-02 05:55:00,
2014-01-02 01:00:00,13.0,9.0,30.25,South,180,4.0,4.0,86,0.00,,,0.00,TxWx,2014-01-02 06:00:00,
2014-01-02 01:06:00,13.0,9.0,30.25,SSE,157,5.0,6.0,87,0.00,,,0.00,TxWx,2014-01-02 06:06:00,
2014-01-02 01:11:00,13.0,9.0,30.25,South,180,5.0,5.0,87,0.00,,,0.00,TxWx,2014-01-02 06:11:00,
2014-01-02 01:16:00,13.0,9.0,30.25,South,180,6.0,6.0,88,0.00,,,0.00,TxWx,2014-01-02 06:16:00,
2014-01-02 01:21:00,13.0,9.0,30.25,South,180,5.0,5.0,88,0.00,,,0.00,TxWx,2014-01-02 06:21:00,
2014-01-02 01:26:00,13.0,9.0,30.25,South,180,4.0,5.0,88,0.00,,,0.00,TxWx,2014-01-02 06:26:00,
2014-01-02 01:31:00,13.0,9.0,30.25,South,180,3.0,3.0,89,0.00,,,0.00,TxWx,2014-01-02 06:31:00,
2014-01-02 01:36:00,13.0,9.0,30.25,SSE,157,5.0,5.0,89,0.00,,,0.00,TxWx,2014-01-02 06:36:00,
2014-01-02 01:42:00,13.0,9.0,30.25,South,180,3.0,3.0,89,0.00,,,0.00,TxWx,2014-01-02 06:42:00,
2014-01-02 01:47:00,13.0,9.0,30.25,SE,135,5.0,6.0,89,0.00,,,0.00,TxWx,2014-01-02 06:47:00,
2014-01-02 01:52:00,13.0,9.0,30.25,South,180,5.0,6.0,89,0.00,,,0.00,TxWx,2014-01-02 06:52:00,
2014-01-02 01:57:00,13.0,9.0,30.25,SE,135,3.0,3.0,90,0.00,,,0.00,TxWx,2014-01-02 06:57:00,
2014-01-02 02:02:00,13.0,9.0,30.25,South,180,6.0,6.0,90,0.00,,,0.00,TxWx,2014-01-02 07:02:00,
2014-01-02 02:07:00,13.0,9.0,30.25,South,180,6.0,6.0,90,0.00,,,0.00,TxWx,2014-01-02 07:07:00,
2014-01-02 02:12:00,13.0,10.0,30.25,South,180,4.0,5.0,90,0.00,,,0.00,TxWx,2014-01-02 07:12:00,
2014-01-02 02:17:00,13.0,10.0,30.25,SSE,157,5.0,6.0,90,0.00,,,0.00,TxWx,2014-01-02 07:17:00,
2014-01-02 02:23:00,13.0,10.0,30.25,SSE,157,5.0,6.0,90,0.00,,,0.00,TxWx,2014-01-02 07:23:00,
2014-01-02 02:28:00,13.0,10.0,30.25,SSW,202,3.0,5.0,90,0.00,,,0.00,TxWx,2014-01-02 07:28:00,
2014-01-02 02:33:00,13.0,10.0,30.25,South,180,3.0,4.0,90,0.00,,,0.00,TxWx,2014-01-02 07:33:00,
2014-01-02 02:38:00,13.0,10.0,30.26,SSE,157,5.0,5.0,90,0.00,,,0.00,TxWx,2014-01-02 07:38:00,
2014-01-02 02:43:00,13.0,10.0,30.25,South,180,6.0,6.0,91,0.00,,,0.00,TxWx,2014-01-02 07:43:00,
2014-01-02 02:48:00,13.0,10.0,30.25,South,180,6.0,6.0,91,0.00,,,0.00,TxWx,2014-01-02 07:48:00,
2014-01-02 02:53:00,12.0,9.0,30.25,South,180,5.0,8.0,91,0.00,,,0.00,TxWx,2014-01-02 07:53:00,
2014-01-02 02:58:00,12.0,9.0,30.25,South,180,8.0,8.0,91,0.00,,,0.00,TxWx,2014-01-02 07:58:00,
2014-01-02 03:03:00,12.0,9.0,30.24,South,180,8.0,8.0,91,0.00,,,0.00,TxWx,2014-01-02 08:03:00,
2014-01-02 03:04:00,0.0,-5.0,30.07,SSE,157,5.0,8.0,84,0.00,,,0.00,TxWx,2014-01-02 08:04:00,
2014-01-02 03:08:00,0.0,-5.0,30.07,South,180,10.0,10.0,84,0.00,,,0.00,TxWx,2014-01-02 08:08:00,
2014-01-02 03:09:00,12.0,9.0,30.24,WSW,247,4.0,5.0,91,0.00,,,0.00,TxWx,2014-01-02 08:09:00,
2014-01-02 03:10:00,0.0,-5.0,30.07,ESE,112,8.0,9.0,84,0.00,,,0.00,TxWx,2014-01-02 08:10:00,
2014-01-02 03:11:00,0.0,-5.0,30.07,SSE,157,10.0,10.0,85,0.00,,,0.00,TxWx,2014-01-02 08:11:00,
2014-01-02 03:12:00,0.0,-5.0,30.07,South,180,8.0,8.0,85,0.00,,,0.00,TxWx,2014-01-02 08:12:00,
2014-01-02 03:13:00,0.0,-5.0,30.07,SSE,157,8.0,10.0,85,0.00,,,0.00,TxWx,2014-01-02 08:13:00,
2014-01-02 03:14:00,12.0,9.0,30.24,SSW,202,5.0,6.0,91,0.00,,,0.00,TxWx,2014-01-02 08:14:00,
2014-01-02 03:16:00,0.0,-5.0,30.06,South,180,14.0,14.0,84,0.00,,,0.00,TxWx,2014-01-02 08:16:00,
2014-01-02 03:17:00,0.0,-5.0,30.06,SSE,157,10.0,13.0,84,0.00,,,0.00,TxWx,2014-01-02 08:17:00,
2014-01-02 03:18:00,0.0,-5.0,30.06,SSW,202,10.0,10.0,84,0.00,,,0.00,TxWx,2014-01-02 08:18:00,
2014-01-02 03:19:00,12.0,9.0,30.24,South,180,7.0,8.0,91,0.00,,,0.00,TxWx,2014-01-02 08:19:00,
2014-01-02 03:21:00,0.0,-5.0,30.06,SSE,157,5.0,5.0,85,0.00,,,0.00,TxWx,2014-01-02 08:21:00,
2014-01-02 03:22:00,0.0,-5.0,30.06,SSE,157,9.0,12.0,85,0.00,,,0.00,TxWx,2014-01-02 08:22:00,
2014-01-02 03:24:00,12.0,9.0,30.24,SSE,157,5.0,5.0,92,0.00,,,0.00,TxWx,2014-01-02 08:24:00,
2014-01-02 03:29:00,12.0,9.0,30.24,South,180,11.0,11.0,91,0.00,,,0.00,TxWx,2014-01-02 08:29:00,
2014-01-02 03:34:00,11.0,8.0,30.24,SW,225,8.0,12.0,91,0.00,,,0.00,TxWx,2014-01-02 08:34:00,
2014-01-02 03:40:00,11.0,8.0,30.23,South,180,11.0,12.0,91,0.00,,,0.00,TxWx,2014-01-02 08:40:00,
2014-01-02 03:45:00,10.0,7.0,30.23,South,180,8.0,10.0,91,0.00,,,0.00,TxWx,2014-01-02 08:45:00,
2014-01-02 03:50:00,10.0,7.0,30.23,South,180,5.0,6.0,92,0.00,,,0.00,TxWx,2014-01-02 08:50:00,
2014-01-02 03:55:00,10.0,7.0,30.22,South,180,9.0,10.0,92,0.00,,,0.00,TxWx,2014-01-02 08:55:00,
2014-01-02 04:00:00,10.0,7.0,30.22,SW,225,10.0,10.0,92,0.00,,,0.00,TxWx,2014-01-02 09:00:00,
2014-01-02 04:05:00,9.0,6.0,30.23,South,180,6.0,8.0,92,0.00,,,0.00,TxWx,2014-01-02 09:05:00,
2014-01-02 04:10:00,9.0,6.0,30.22,SSW,202,10.0,13.0,92,0.00,,,0.00,TxWx,2014-01-02 09:10:00,
2014-01-02 04:15:00,8.0,5.0,30.23,South,180,7.0,9.0,92,0.00,,,0.00,TxWx,2014-01-02 09:15:00,
2014-01-02 04:20:00,8.0,5.0,30.22,SSE,157,8.0,10.0,91,0.00,,,0.00,TxWx,2014-01-02 09:20:00,
2014-01-02 04:26:00,8.0,5.0,30.23,South,180,17.0,17.0,92,0.00,,,0.00,TxWx,2014-01-02 09:26:00,
2014-01-02 04:31:00,7.0,4.0,30.23,SE,135,10.0,10.0,91,0.00,,,0.00,TxWx,2014-01-02 09:31:00,
2014-01-02 04:36:00,7.0,4.0,30.22,SSW,202,5.0,5.0,91,0.00,,,0.00,TxWx,2014-01-02 09:36:00,
2014-01-02 04:41:00,7.0,4.0,30.22,SW,225,6.0,9.0,91,0.00,,,0.00,TxWx,2014-01-02 09:41:00,
2014-01-02 04:46:00,6.0,3.0,30.22,South,180,12.0,12.0,91,0.00,,,0.00,TxWx,2014-01-02 09:46:00,
2014-01-02 04:51:00,6.0,3.0,30.22,SSE,157,8.0,8.0,91,0.00,,,0.00,TxWx,2014-01-02 09:51:00,
2014-01-02 04:56:00,5.0,2.0,30.22,SE,135,10.0,11.0,91,0.00,,,0.00,TxWx,2014-01-02 09:56:00,
2014-01-02 05:01:00,5.0,2.0,30.22,SSE,157,12.0,14.0,91,0.00,,,0.00,TxWx,2014-01-02 10:01:00,
2014-01-02 05:07:00,5.0,2.0,30.22,SSW,202,7.0,9.0,91,0.00,,,0.00,TxWx,2014-01-02 10:07:00,
2014-01-02 05:12:00,5.0,2.0,30.22,South,180,6.0,8.0,91,0.00,,,0.00,TxWx,2014-01-02 10:12:00,
2014-01-02 05:17:00,5.0,2.0,30.22,South,180,5.0,8.0,91,0.00,,,0.00,TxWx,2014-01-02 10:17:00,
2014-01-02 05:22:00,4.0,1.0,30.22,SW,225,11.0,14.0,91,0.00,,,0.00,TxWx,2014-01-02 10:22:00,
2014-01-02 05:27:00,4.0,1.0,30.22,SW,225,12.0,13.0,90,0.00,,,0.00,TxWx,2014-01-02 10:27:00,
2014-01-02 05:32:00,4.0,1.0,30.22,South,180,10.0,14.0,90,0.00,,,0.00,TxWx,2014-01-02 10:32:00,
2014-01-02 05:37:00,4.0,1.0,30.22,SSW,202,12.0,13.0,90,0.00,,,0.00,TxWx,2014-01-02 10:37:00,
2014-01-02 05:42:00,3.0,0.0,30.22,SSE,157,10.0,16.0,90,0.00,,,0.00,TxWx,2014-01-02 10:42:00,
2014-01-02 05:47:00,3.0,0.0,30.22,South,180,10.0,12.0,90,0.00,,,0.00,TxWx,2014-01-02 10:47:00,
2014-01-02 05:52:00,3.0,0.0,30.22,South,180,16.0,19.0,90,0.00,,,0.00,TxWx,2014-01-02 10:52:00,
2014-01-02 05:58:00,3.0,0.0,30.22,South,180,13.0,14.0,89,0.00,,,0.00,TxWx,2014-01-02 10:58:00,
2014-01-02 06:03:00,3.0,0.0,30.22,SSE,157,5.0,10.0,89,0.00,,,0.00,TxWx,2014-01-02 11:03:00,
2014-01-02 06:08:00,3.0,0.0,30.22,South,180,8.0,12.0,89,0.00,,,0.00,TxWx,2014-01-02 11:08:00,
2014-01-02 06:13:00,2.0,-1.0,30.22,South,180,8.0,9.0,89,0.00,,,0.00,TxWx,2014-01-02 11:13:00,
2014-01-02 06:18:00,2.0,-2.0,30.22,South,180,19.0,19.0,89,0.00,,,0.00,TxWx,2014-01-02 11:18:00,
2014-01-02 06:23:00,2.0,-2.0,30.22,SSE,157,8.0,8.0,89,0.00,,,0.00,TxWx,2014-01-02 11:23:00,
2014-01-02 06:28:00,2.0,-2.0,30.22,SSW,202,8.0,9.0,89,0.00,,,0.00,TxWx,2014-01-02 11:28:00,
2014-01-02 06:33:00,2.0,-2.0,30.23,SSE,157,9.0,13.0,89,0.00,,,0.00,TxWx,2014-01-02 11:33:00,
2014-01-02 06:38:00,2.0,-2.0,30.22,SE,135,10.0,11.0,89,0.00,,,0.00,TxWx,2014-01-02 11:38:00,
2014-01-02 06:43:00,2.0,-2.0,30.22,SSE,157,6.0,10.0,89,0.00,,,0.00,TxWx,2014-01-02 11:43:00,
2014-01-02 06:49:00,1.0,-3.0,30.22,South,180,15.0,15.0,89,0.00,,,0.00,TxWx,2014-01-02 11:49:00,
2014-01-02 06:54:00,1.0,-3.0,30.22,SE,135,8.0,8.0,89,0.00,,,0.00,TxWx,2014-01-02 11:54:00,
2014-01-02 06:59:00,1.0,-3.0,30.22,SSE,157,10.0,11.0,89,0.00,,,0.00,TxWx,2014-01-02 11:59:00,
2014-01-02 07:04:00,1.0,-3.0,30.22,South,180,13.0,13.0,88,0.00,,,0.00,TxWx,2014-01-02 12:04:00,
2014-01-02 07:09:00,1.0,-3.0,30.21,SE,135,13.0,16.0,88,0.00,,,0.00,TxWx,2014-01-02 12:09:00,
2014-01-02 07:14:00,1.0,-3.0,30.22,SSE,157,13.0,14.0,88,0.00,,,0.00,TxWx,2014-01-02 12:14:00,
2014-01-02 07:19:00,1.0,-3.0,30.22,South,180,11.0,14.0,88,0.00,,,0.00,TxWx,2014-01-02 12:19:00,
2014-01-02 07:24:00,1.0,-4.0,30.22,South,180,10.0,16.0,88,0.00,,,0.00,TxWx,2014-01-02 12:24:00,
2014-01-02 07:30:00,0.0,-4.0,30.22,SSE,157,11.0,16.0,88,0.00,,,0.00,TxWx,2014-01-02 12:30:00,
2014-01-02 07:35:00,0.0,-4.0,30.22,SSE,157,8.0,11.0,88,0.00,,,0.00,TxWx,2014-01-02 12:35:00,
2014-01-02 07:40:00,0.0,-4.0,30.22,SSE,157,11.0,13.0,88,0.00,,,0.00,TxWx,2014-01-02 12:40:00,
2014-01-02 07:45:00,0.0,-4.0,30.21,SSE,157,8.0,8.0,88,0.00,,,0.00,TxWx,2014-01-02 12:45:00,
2014-01-02 07:50:00,0.0,-4.0,30.21,SE,135,8.0,12.0,88,0.00,,,0.00,TxWx,2014-01-02 12:50:00,
2014-01-02 07:55:00,0.0,-4.0,30.21,South,180,7.0,9.0,88,0.00,,,0.00,TxWx,2014-01-02 12:55:00,
2014-01-02 08:00:00,0.0,-4.0,30.21,SSE,157,10.0,10.0,88,0.00,,,0.00,TxWx,2014-01-02 13:00:00,
2014-01-02 08:05:00,0.0,-4.0,30.21,SSE,157,6.0,10.0,87,0.00,,,0.00,TxWx,2014-01-02 13:05:00,
2014-01-02 08:10:00,0.0,-4.0,30.21,SSE,157,10.0,15.0,87,0.00,,,0.00,TxWx,2014-01-02 13:10:00,
2014-01-02 08:15:00,0.0,-4.0,30.21,SSE,157,10.0,12.0,87,0.00,,,0.00,TxWx,2014-01-02 13:15:00,
2014-01-02 08:21:00,0.0,-4.0,30.21,South,180,6.0,8.0,87,0.00,,,0.00,TxWx,2014-01-02 13:21:00,
2014-01-02 08:26:00,0.0,-4.0,30.21,SSE,157,12.0,14.0,87,0.00,,,0.00,TxWx,2014-01-02 13:26:00,
2014-01-02 08:31:00,0.0,-4.0,30.20,South,180,14.0,14.0,87,0.00,,,0.00,TxWx,2014-01-02 13:31:00,
2014-01-02 08:36:00,0.0,-4.0,30.20,South,180,8.0,9.0,87,0.00,,,0.00,TxWx,2014-01-02 13:36:00,
2014-01-02 08:41:00,0.0,-4.0,30.21,SW,225,6.0,8.0,87,0.00,,,0.00,TxWx,2014-01-02 13:41:00,
2014-01-02 08:46:00,0.0,-4.0,30.21,South,180,11.0,13.0,87,0.00,,,0.00,TxWx,2014-01-02 13:46:00,
2014-01-02 08:51:00,0.0,-4.0,30.21,WSW,247,5.0,10.0,87,0.00,,,0.00,TxWx,2014-01-02 13:51:00,
2014-01-02 08:56:00,0.0,-4.0,30.21,SSW,202,9.0,9.0,87,0.00,,,0.00,TxWx,2014-01-02 13:56:00,
2014-01-02 09:01:00,0.0,-4.0,30.20,South,180,8.0,9.0,87,0.00,,,0.00,TxWx,2014-01-02 14:01:00,
2014-01-02 09:07:00,0.0,-4.0,30.20,SSE,157,7.0,10.0,87,0.00,,,0.00,TxWx,2014-01-02 14:07:00,
2014-01-02 09:12:00,0.0,-4.0,30.20,SSE,157,11.0,13.0,87,0.00,,,0.00,TxWx,2014-01-02 14:12:00,
2014-01-02 09:17:00,0.0,-4.0,30.19,South,180,10.0,14.0,87,0.00,,,0.00,TxWx,2014-01-02 14:17:00,
2014-01-02 09:22:00,-1.0,-5.0,30.19,South,180,8.0,14.0,87,0.00,,,0.00,TxWx,2014-01-02 14:22:00,
2014-01-02 09:27:00,-1.0,-5.0,30.20,SSE,157,10.0,13.0,86,0.00,,,0.00,TxWx,2014-01-02 14:27:00,
2014-01-02 09:32:00,-1.0,-5.0,30.20,SSE,157,10.0,15.0,86,0.00,,,0.00,TxWx,2014-01-02 14:32:00,
2014-01-02 09:37:00,-1.0,-5.0,30.20,SSE,157,5.0,8.0,86,0.00,,,0.00,TxWx,2014-01-02 14:37:00,
2014-01-02 09:42:00,-1.0,-5.0,30.20,SSE,157,11.0,13.0,86,0.00,,,0.00,TxWx,2014-01-02 14:42:00,
2014-01-02 09:47:00,-1.0,-5.0,30.20,South,180,12.0,14.0,85,0.00,,,0.00,TxWx,2014-01-02 14:47:00,
2014-01-02 09:53:00,-1.0,-5.0,30.19,South,180,9.0,10.0,85,0.00,,,0.00,TxWx,2014-01-02 14:53:00,
2014-01-02 09:58:00,0.0,-4.0,30.19,West,270,5.0,9.0,85,0.00,,,0.00,TxWx,2014-01-02 14:58:00,
2014-01-02 10:03:00,0.0,-5.0,30.18,SSE,157,9.0,11.0,85,0.00,,,0.00,TxWx,2014-01-02 15:03:00,
2014-01-02 10:08:00,0.0,-5.0,30.18,SSE,157,10.0,11.0,85,0.00,,,0.00,TxWx,2014-01-02 15:08:00,
2014-01-02 10:13:00,0.0,-5.0,30.18,WSW,247,8.0,13.0,84,0.00,,,0.00,TxWx,2014-01-02 15:13:00,
2014-01-02 10:18:00,0.0,-5.0,30.18,South,180,12.0,14.0,84,0.00,,,0.00,TxWx,2014-01-02 15:18:00,
2014-01-02 10:23:00,0.0,-5.0,30.17,South,180,10.0,13.0,83,0.00,,,0.00,TxWx,2014-01-02 15:23:00,
2014-01-02 10:28:00,0.0,-5.0,30.17,SE,135,7.0,9.0,84,0.00,,,0.00,TxWx,2014-01-02 15:28:00,
2014-01-02 10:33:00,-1.0,-6.0,30.17,SSE,157,8.0,10.0,84,0.00,,,0.00,TxWx,2014-01-02 15:33:00,
2014-01-02 10:39:00,0.0,-5.0,30.16,SSW,202,6.0,9.0,84,0.00,,,0.00,TxWx,2014-01-02 15:39:00,
2014-01-02 10:44:00,0.0,-5.0,30.15,South,180,10.0,11.0,84,0.00,,,0.00,TxWx,2014-01-02 15:44:00,
2014-01-02 10:49:00,0.0,-5.0,30.15,South,180,12.0,14.0,84,0.00,,,0.00,TxWx,2014-01-02 15:49:00,
2014-01-02 10:54:00,0.0,-5.0,30.14,SSE,157,6.0,8.0,84,0.00,,,0.00,TxWx,2014-01-02 15:54:00,
2014-01-02 10:59:00,0.0,-5.0,30.14,SSE,157,7.0,14.0,84,0.00,,,0.00,TxWx,2014-01-02 15:59:00,
2014-01-02 11:04:00,0.0,-5.0,30.14,South,180,8.0,8.0,84,0.00,,,0.00,TxWx,2014-01-02 16:04:00,
2014-01-02 11:09:00,0.0,-5.0,30.13,South,180,8.0,8.0,84,0.00,,,0.00,TxWx,2014-01-02 16:09:00,
2014-01-02 11:14:00,0.0,-5.0,30.12,South,180,10.0,10.0,84,0.00,,,0.00,TxWx,2014-01-02 16:14:00,
2014-01-02 11:19:00,-1.0,-6.0,30.14,SE,135,5.0,11.0,83,0.00,,,0.00,TxWx,2014-01-02 16:19:00,
2014-01-02 11:24:00,0.0,-5.0,30.11,SSE,157,8.0,8.0,84,0.00,,,0.00,TxWx,2014-01-02 16:24:00,
2014-01-02 11:30:00,0.0,-5.0,30.11,South,180,10.0,11.0,84,0.00,,,0.00,TxWx,2014-01-02 16:30:00,
2014-01-02 11:35:00,0.0,-5.0,30.10,SSE,157,10.0,10.0,84,0.00,,,0.00,TxWx,2014-01-02 16:35:00,
2014-01-02 11:40:00,0.0,-5.0,30.10,SE,135,13.0,13.0,84,0.00,,,0.00,TxWx,2014-01-02 16:40:00,
2014-01-02 11:45:00,0.0,-5.0,30.10,SW,225,8.0,10.0,84,0.00,,,0.00,TxWx,2014-01-02 16:45:00,
2014-01-02 11:50:00,0.0,-5.0,30.09,South,180,6.0,6.0,85,0.00,,,0.00,TxWx,2014-01-02 16:50:00,
2014-01-02 11:55:00,0.0,-5.0,30.08,SSE,157,4.0,5.0,84,0.00,,,0.00,TxWx,2014-01-02 16:55:00,
2014-01-02 12:00:00,0.0,-5.0,30.08,SE,135,7.0,8.0,84,0.00,,,0.00,TxWx,2014-01-02 17:00:00,
2014-01-02 12:01:00,-2.0,-6.0,29.86,SSE,157,10.0,13.0,87,0.00,,,0.00,TxWx,2014-01-02 17:01:00,
2014-01-02 12:04:00,-2.0,-6.0,29.86,South,180,10.0,11.0,87,0.00,,,0.00,TxWx,2014-01-02 17:04:00,
2014-01-02 12:05:00,0.0,-5.0,30.07,South,180,6.0,6.0,84,0.00,,,0.00,TxWx,2014-01-02 17:05:00,
2014-01-02 12:06:00,-2.0,-6.0,29.86,SSE,157,5.0,6.0,87,0.00,,,0.00,TxWx,2014-01-02 17:06:00,
2014-01-02 12:07:00,-2.0,-6.0,29.86,SE,135,6.0,7.0,87,0.00,,,0.00,TxWx,2014-01-02 17:07:00,
2014-01-02 12:08:00,-2.0,-6.0,29.86,South,180,11.0,11.0,87,0.00,,,0.00,TxWx,2014-01-02 17:08:00,
2014-01-02 12:10:00,0.0,-5.0,30.07,SSE,157,6.0,8.0,85,0.00,,,0.00,TxWx,2014-01-02 17:10:00,
2014-01-02 12:11:00,-2.0,-6.0,29.86,SSE,157,8.0,10.0,87,0.00,,,0.00,TxWx,2014-01-02 17:11:00,
2014-01-02 12:12:00,-2.0,-6.0,29.86,South,180,5.0,5.0,87,0.00,,,0.00,TxWx,2014-01-02 17:12:00,
2014-01-02 12:14:00,-2.0,-6.0,29.86,SE,135,10.0,11.0,87,0.00,,,0.00,TxWx,2014-01-02 17:14:00,
2014-01-02 12:15:00,0.0,-5.0,30.06,SE,135,10.0,13.0,85,0.00,,,0.00,TxWx,2014-01-02 17:15:00,
2014-01-02 12:17:00,-2.0,-6.0,29.86,South,180,5.0,7.0,87,0.00,,,0.00,TxWx,2014-01-02 17:17:00,
2014-01-02 12:19:00,-2.0,-6.0,29.86,SE,135,6.0,8.0,87,0.00,,,0.00,TxWx,2014-01-02 17:19:00,
2014-01-02 12:20:00,-2.0,-6.0,29.86,SSE,157,6.0,8.0,87,0.00,,,0.00,TxWx,2014-01-02 17:20:00,
2014-01-02 12:21:00,0.0,-5.0,30.06,SSE,157,10.0,10.0,85,0.00,,,0.00,TxWx,2014-01-02 17:21:00,
2014-01-02 12:22:00,-2.0,-6.0,29.86,SE,135,9.0,9.0,87,0.00,,,0.00,TxWx,2014-01-02 17:22:00,
2014-01-02 12:23:00,-2.0,-6.0,29.86,South,180,14.0,14.0,87,0.00,,,0.00,TxWx,2014-01-02 17:23:00,
2014-01-02 12:24:00,-2.0,-6.0,29.86,SSE,157,11.0,11.0,87,0.00,,,0.00,TxWx,2014-01-02 17:24:00,
2014-01-02 12:25:00,-2.0,-6.0,29.86,NW,315,5.0,8.0,87,0.00,,,0.00,TxWx,2014-01-02 17:25:00,
2014-01-02 12:26:00,0.0,-5.0,30.06,SSE,157,11.0,13.0,84,0.00,,,0.00,TxWx,2014-01-02 17:26:00,
2014-01-02 12:27:00,-2.0,-6.0,29.86,WSW,247,6.0,9.0,87,0.00,,,0.00,TxWx,2014-01-02 17:27:00,
2014-01-02 12:28:00,-2.0,-6.0,29.86,South,180,11.0,11.0,87,0.00,,,0.00,TxWx,2014-01-02 17:28:00,
2014-01-02 12:31:00,0.0,-5.0,30.06,SSE,157,10.0,14.0,84,0.00,,,0.00,TxWx,2014-01-02 17:31:00,
2014-01-02 12:36:00,0.0,-5.0,30.05,SE,135,10.0,11.0,84,0.00,,,0.00,TxWx,2014-01-02 17:36:00,
2014-01-02 12:41:00,0.0,-5.0,30.06,SSE,157,13.0,14.0,84,0.00,,,0.00,TxWx,2014-01-02 17:41:00,
2014-01-02 12:46:00,1.0,-4.0,30.05,SSE,157,9.0,11.0,84,0.00,,,0.00,TxWx,2014-01-02 17:46:00,
2014-01-02 12:51:00,0.0,-5.0,30.05,SE,135,8.0,10.0,84,0.00,,,0.00,TxWx,2014-01-02 17:51:00,
2014-01-02 12:56:00,0.0,-5.0,30.05,South,180,10.0,13.0,84,0.00,,,0.00,TxWx,2014-01-02 17:56:00,
2014-01-02 13:01:00,0.0,-5.0,30.04,SSE,157,10.0,10.0,84,0.00,,,0.00,TxWx,2014-01-02 18:01:00,
2014-01-02 13:06:00,0.0,-5.0,30.04,SSE,157,8.0,11.0,84,0.00,,,0.00,TxWx,2014-01-02 18:06:00,
2014-01-02 13:12:00,0.0,-5.0,30.04,SSE,157,11.0,12.0,84,0.00,,,0.00,TxWx,2014-01-02 18:12:00,
2014-01-02 13:17:00,0.0,-5.0,30.03,SSE,157,8.0,8.0,83,0.00,,,0.00,TxWx,2014-01-02 18:17:00,
2014-01-02 13:22:00,0.0,-5.0,30.03,SE,135,6.0,8.0,83,0.00,,,0.00,TxWx,2014-01-02 18:22:00,
2014-01-02 13:27:00,0.0,-5.0,30.02,SSE,157,7.0,7.0,83,0.00,,,0.00,TxWx,2014-01-02 18:27:00,
2014-01-02 13:32:00,0.0,-5.0,30.02,South,180,14.0,14.0,83,0.00,,,0.00,TxWx,2014-01-02 18:32:00,
2014-01-02 13:37:00,0.0,-5.0,30.02,SE,135,13.0,14.0,83,0.00,,,0.00,TxWx,2014-01-02 18:37:00,
2014-01-02 13:42:00,0.0,-5.0,30.02,SE,135,8.0,15.0,83,0.00,,,0.00,TxWx,2014-01-02 18:42:00,
2014-01-02 13:47:00,0.0,-5.0,30.01,SE,135,11.0,11.0,83,0.00,,,0.00,TxWx,2014-01-02 18:47:00,
2014-01-02 13:52:00,0.0,-5.0,30.01,SE,135,6.0,11.0,84,0.00,,,0.00,TxWx,2014-01-02 18:52:00,
2014-01-02 13:57:00,0.0,-5.0,30.01,South,180,6.0,13.0,84,0.00,,,0.00,TxWx,2014-01-02 18:57:00,
2014-01-02 14:02:00,0.0,-5.0,30.00,SSE,157,11.0,16.0,84,0.00,,,0.00,TxWx,2014-01-02 19:02:00,
2014-01-02 14:07:00,0.0,-5.0,30.00,ESE,112,12.0,12.0,84,0.00,,,0.00,TxWx,2014-01-02 19:07:00,
2014-01-02 14:13:00,0.0,-5.0,29.99,SSW,202,7.0,10.0,84,0.00,,,0.00,TxWx,2014-01-02 19:13:00,
2014-01-02 14:18:00,0.0,-5.0,29.98,SE,135,7.0,9.0,85,0.00,,,0.00,TxWx,2014-01-02 19:18:00,
2014-01-02 14:23:00,0.0,-4.0,29.98,SSE,157,10.0,11.0,85,0.00,,,0.00,TxWx,2014-01-02 19:23:00,
2014-01-02 14:28:00,0.0,-4.0,29.97,South,180,8.0,11.0,85,0.00,,,0.00,TxWx,2014-01-02 19:28:00,
2014-01-02 14:33:00,0.0,-4.0,29.97,SSW,202,13.0,13.0,85,0.00,,,0.00,TxWx,2014-01-02 19:33:00,
2014-01-02 14:38:00,0.0,-4.0,29.96,SSE,157,10.0,13.0,86,0.00,,,0.00,TxWx,2014-01-02 19:38:00,
2014-01-02 14:43:00,0.0,-4.0,29.96,SSE,157,15.0,16.0,86,0.00,,,0.00,TxWx,2014-01-02 19:43:00,
2014-01-02 14:48:00,0.0,-4.0,29.96,SSE,157,7.0,15.0,86,0.00,,,0.00,TxWx,2014-01-02 19:48:00,
2014-01-02 14:53:00,0.0,-4.0,29.97,SSE,157,9.0,16.0,86,0.00,,,0.00,TxWx,2014-01-02 19:53:00,
2014-01-02 14:58:00,0.0,-4.0,29.97,SSE,157,11.0,11.0,86,0.00,,,0.00,TxWx,2014-01-02 19:58:00,
2014-01-02 15:00:00,-4.0,-8.0,29.83,SSE,157,10.0,16.0,86,0.00,,,0.00,TxWx,2014-01-02 20:00:00,
2014-01-02 15:01:00,-4.0,-8.0,29.84,WSW,247,5.0,10.0,86,0.00,,,0.00,TxWx,2014-01-02 20:01:00,
2014-01-02 15:02:00,-4.0,-8.0,29.83,SSE,157,11.0,11.0,86,0.00,,,0.00,TxWx,2014-01-02 20:02:00,
2014-01-02 15:03:00,0.0,-4.0,29.97,SSE,157,12.0,13.0,87,0.00,,,0.00,TxWx,2014-01-02 20:03:00,
2014-01-02 15:04:00,-4.0,-8.0,29.83,South,180,11.0,14.0,86,0.00,,,0.00,TxWx,2014-01-02 20:04:00,
2014-01-02 15:05:00,-4.0,-8.0,29.82,South,180,12.0,12.0,86,0.00,,,0.00,TxWx,2014-01-02 20:05:00,
2014-01-02 15:06:00,-4.0,-8.0,29.82,South,180,11.0,13.0,86,0.00,,,0.00,TxWx,2014-01-02 20:06:00,
2014-01-02 15:07:00,-4.0,-8.0,29.82,South,180,12.0,12.0,86,0.00,,,0.00,TxWx,2014-01-02 20:07:00,
2014-01-02 15:08:00,-4.0,-8.0,29.82,SSE,157,16.0,18.0,86,0.00,,,0.00,TxWx,2014-01-02 20:08:00,
2014-01-02 15:09:00,0.0,-4.0,29.97,South,180,9.0,9.0,87,0.00,,,0.00,TxWx,2014-01-02 20:09:00,
2014-01-02 15:10:00,-4.0,-8.0,29.82,South,180,10.0,13.0,86,0.00,,,0.00,TxWx,2014-01-02 20:10:00,
2014-01-02 15:11:00,-4.0,-8.0,29.82,SE,135,12.0,15.0,86,0.00,,,0.00,TxWx,2014-01-02 20:11:00,
2014-01-02 15:12:00,-5.0,-9.0,29.82,SSE,157,14.0,16.0,86,0.00,,,0.00,TxWx,2014-01-02 20:12:00,
2014-01-02 15:13:00,-5.0,-9.0,29.82,South,180,7.0,9.0,86,0.00,,,0.00,TxWx,2014-01-02 20:13:00,
2014-01-02 15:14:00,0.0,-4.0,29.97,South,180,8.0,14.0,87,0.00,,,0.00,TxWx,2014-01-02 20:14:00,
2014-01-02 15:15:00,-5.0,-9.0,29.81,SSE,157,14.0,19.0,86,0.00,,,0.00,TxWx,2014-01-02 20:15:00,
2014-01-02 15:16:00,-5.0,-9.0,29.81,South,180,17.0,17.0,86,0.00,,,0.00,TxWx,2014-01-02 20:16:00,
2014-01-02 15:17:00,-5.0,-9.0,29.81,SW,225,6.0,11.0,86,0.00,,,0.00,TxWx,2014-01-02 20:17:00,
2014-01-02 15:18:00,-5.0,-9.0,29.82,ESE,112,9.0,9.0,86,0.00,,,0.00,TxWx,2014-01-02 20:18:00,
2014-01-02 15:19:00,0.0,-4.0,29.97,South,180,11.0,12.0,87,0.00,,,0.00,TxWx,2014-01-02 20:19:00,
2014-01-02 15:20:00,-5.0,-9.0,29.82,SSE,157,7.0,11.0,86,0.00,,,0.00,TxWx,2014-01-02 20:20:00,
2014-01-02 15:21:00,-5.0,-9.0,29.82,SSE,157,8.0,11.0,86,0.00,,,0.00,TxWx,2014-01-02 20:21:00,
2014-01-02 15:23:00,-5.0,-9.0,29.82,SSE,157,6.0,8.0,86,0.00,,,0.00,TxWx,2014-01-02 20:23:00,
2014-01-02 15:24:00,0.0,-4.0,29.96,South,180,14.0,16.0,87,0.00,,,0.00,TxWx,2014-01-02 20:24:00,
2014-01-02 15:26:00,-5.0,-9.0,29.83,SSE,157,16.0,17.0,86,0.00,,,0.00,TxWx,2014-01-02 20:26:00,
2014-01-02 15:28:00,-5.0,-9.0,29.83,ESE,112,7.0,11.0,86,0.00,,,0.00,TxWx,2014-01-02 20:28:00,
2014-01-02 15:29:00,0.0,-4.0,29.96,WSW,247,5.0,9.0,87,0.00,,,0.00,TxWx,2014-01-02 20:29:00,
2014-01-02 15:30:00,-5.0,-9.0,29.83,SE,135,4.0,9.0,86,0.00,,,0.00,TxWx,2014-01-02 20:30:00,
2014-01-02 15:31:00,-5.0,-9.0,29.83,East,90,7.0,7.0,86,0.00,,,0.00,TxWx,2014-01-02 20:31:00,
2014-01-02 15:32:00,-5.0,-9.0,29.83,ESE,112,8.0,10.0,86,0.00,,,0.00,TxWx,2014-01-02 20:32:00,
2014-01-02 15:33:00,-5.0,-9.0,29.83,SE,135,16.0,16.0,86,0.00,,,0.00,TxWx,2014-01-02 20:33:00,
2014-01-02 15:34:00,0.0,-4.0,29.96,SSE,157,9.0,12.0,87,0.00,,,0.00,TxWx,2014-01-02 20:34:00,
2014-01-02 15:36:00,-5.0,-9.0,29.82,South,180,15.0,22.0,86,0.00,,,0.00,TxWx,2014-01-02 20:36:00,
2014-01-02 15:37:00,-5.0,-9.0,29.82,South,180,13.0,14.0,86,0.00,,,0.00,TxWx,2014-01-02 20:37:00,
2014-01-02 15:39:00,0.0,-4.0,29.96,South,180,10.0,10.0,87,0.00,,,0.00,TxWx,2014-01-02 20:39:00,
2014-01-02 15:40:00,-5.0,-9.0,29.82,SW,225,11.0,11.0,86,0.00,,,0.00,TxWx,2014-01-02 20:40:00,
2014-01-02 15:41:00,-5.0,-9.0,29.82,ESE,112,6.0,6.0,86,0.00,,,0.00,TxWx,2014-01-02 20:41:00,
2014-01-02 15:44:00,0.0,-4.0,29.96,SSE,157,15.0,16.0,87,0.00,,,0.00,TxWx,2014-01-02 20:44:00,
2014-01-02 15:50:00,0.0,-4.0,29.96,South,180,13.0,16.0,87,0.00,,,0.00,TxWx,2014-01-02 20:50:00,
2014-01-02 15:55:00,0.0,-4.0,29.96,SSE,157,13.0,15.0,88,0.00,,,0.00,TxWx,2014-01-02 20:55:00,
2014-01-02 16:00:00,0.0,-4.0,29.96,South,180,8.0,10.0,88,0.00,,,0.00,TxWx,2014-01-02 21:00:00,
2014-01-02 16:05:00,0.0,-4.0,29.97,SSE,157,10.0,14.0,88,0.00,,,0.00,TxWx,2014-01-02 21:05:00,
2014-01-02 16:10:00,0.0,-4.0,29.97,SW,225,5.0,6.0,88,0.00,,,0.00,TxWx,2014-01-02 21:10:00,
2014-01-02 16:15:00,0.0,-4.0,29.96,SSE,157,11.0,11.0,88,0.00,,,0.00,TxWx,2014-01-02 21:15:00,
2014-01-02 16:20:00,0.0,-4.0,29.95,WNW,292,3.0,7.0,88,0.00,,,0.00,TxWx,2014-01-02 21:20:00,
2014-01-02 16:25:00,0.0,-4.0,29.95,SSE,157,10.0,16.0,88,0.00,,,0.00,TxWx,2014-01-02 21:25:00,
2014-01-02 16:31:00,0.0,-4.0,29.95,South,180,5.0,8.0,88,0.00,,,0.00,TxWx,2014-01-02 21:31:00,
2014-01-02 16:35:00,0.0,-4.0,29.95,SSE,157,15.0,19.0,88,0.00,,,0.00,TxWx,2014-01-02 21:35:00,
2014-01-02 16:41:00,0.0,-4.0,29.94,SSE,157,12.0,12.0,88,0.00,,,0.00,TxWx,2014-01-02 21:41:00,
2014-01-02 16:46:00,0.0,-4.0,29.94,South,180,11.0,11.0,88,0.00,,,0.00,TxWx,2014-01-02 21:46:00,
2014-01-02 16:51:00,0.0,-4.0,29.94,SE,135,6.0,10.0,88,0.00,,,0.00,TxWx,2014-01-02 21:51:00,
2014-01-02 16:56:00,0.0,-4.0,29.94,SSE,157,11.0,13.0,88,0.00,,,0.00,TxWx,2014-01-02 21:56:00,
2014-01-02 17:01:00,0.0,-4.0,29.94,ESE,112,6.0,6.0,88,0.00,,,0.00,TxWx,2014-01-02 22:01:00,
2014-01-02 17:06:00,0.0,-4.0,29.94,SSE,157,12.0,12.0,88,0.00,,,0.00,TxWx,2014-01-02 22:06:00,
2014-01-02 17:11:00,0.0,-4.0,29.94,SSE,157,5.0,8.0,88,0.00,,,0.00,TxWx,2014-01-02 22:11:00,
2014-01-02 17:16:00,0.0,-4.0,29.94,South,180,6.0,7.0,88,0.00,,,0.00,TxWx,2014-01-02 22:16:00,
2014-01-02 17:21:00,0.0,-4.0,29.93,SSE,157,8.0,14.0,88,0.00,,,0.00,TxWx,2014-01-02 22:21:00,
2014-01-02 17:27:00,0.0,-4.0,29.93,SSE,157,6.0,9.0,88,0.00,,,0.00,TxWx,2014-01-02 22:27:00,
2014-01-02 17:32:00,0.0,-4.0,29.93,SE,135,11.0,11.0,88,0.00,,,0.00,TxWx,2014-01-02 22:32:00,
2014-01-02 17:37:00,0.0,-4.0,29.92,SSE,157,10.0,16.0,88,0.00,,,0.00,TxWx,2014-01-02 22:37:00,
2014-01-02 17:42:00,0.0,-4.0,29.92,West,270,3.0,7.0,88,0.00,,,0.00,TxWx,2014-01-02 22:42:00,
2014-01-02 17:47:00,0.0,-4.0,29.91,South,180,13.0,14.0,88,0.00,,,0.00,TxWx,2014-01-02 22:47:00,
2014-01-02 17:52:00,0.0,-4.0,29.92,SSE,157,6.0,8.0,88,0.00,,,0.00,TxWx,2014-01-02 22:52:00,
2014-01-02 17:57:00,0.0,-4.0,29.91,SSW,202,10.0,11.0,88,0.00,,,0.00,TxWx,2014-01-02 22:57:00,
2014-01-02 18:01:00,-6.0,-10.0,29.81,SE,135,9.0,10.0,86,0.00,,,0.00,TxWx,2014-01-02 23:01:00,
2014-01-02 18:02:00,0.0,-4.0,29.91,ESE,112,5.0,10.0,88,0.00,,,0.00,TxWx,2014-01-02 23:02:00,
2014-01-02 18:04:00,-6.0,-10.0,29.81,SSE,157,13.0,18.0,86,0.00,,,0.00,TxWx,2014-01-02 23:04:00,
2014-01-02 18:06:00,-6.0,-10.0,29.81,SE,135,13.0,13.0,86,0.00,,,0.00,TxWx,2014-01-02 23:06:00,
2014-01-02 18:07:00,0.0,-4.0,29.92,South,180,11.0,12.0,88,0.00,,,0.00,TxWx,2014-01-02 23:07:00,
2014-01-02 18:08:00,-6.0,-10.0,29.82,South,180,10.0,13.0,86,0.00,,,0.00,TxWx,2014-01-02 23:08:00,
2014-01-02 18:09:00,-6.0,-10.0,29.82,SSE,157,11.0,12.0,86,0.00,,,0.00,TxWx,2014-01-02 23:09:00,
2014-01-02 18:10:00,-6.0,-10.0,29.82,SSE,157,15.0,15.0,86,0.00,,,0.00,TxWx,2014-01-02 23:10:00,
2014-01-02 18:11:00,-6.0,-10.0,29.82,SE,135,5.0,9.0,86,0.00,,,0.00,TxWx,2014-01-02 23:11:00,
2014-01-02 18:12:00,-1.0,-5.0,29.92,SSE,157,8.0,8.0,88,0.00,,,0.00,TxWx,2014-01-02 23:12:00,
2014-01-02 18:14:00,-6.0,-10.0,29.82,SSE,157,13.0,13.0,86,0.00,,,0.00,TxWx,2014-01-02 23:14:00,
2014-01-02 18:15:00,-6.0,-10.0,29.82,South,180,6.0,6.0,86,0.00,,,0.00,TxWx,2014-01-02 23:15:00,
2014-01-02 18:16:00,-6.0,-10.0,29.82,SSE,157,9.0,10.0,86,0.00,,,0.00,TxWx,2014-01-02 23:16:00,
2014-01-02 18:17:00,-1.0,-5.0,29.92,SSE,157,11.0,13.0,88,0.00,,,0.00,TxWx,2014-01-02 23:17:00,
2014-01-02 18:18:00,-6.0,-10.0,29.83,SSE,157,12.0,12.0,86,0.00,,,0.00,TxWx,2014-01-02 23:18:00,
2014-01-02 18:20:00,-6.0,-10.0,29.83,South,180,8.0,10.0,86,0.00,,,0.00,TxWx,2014-01-02 23:20:00,
2014-01-02 18:22:00,-1.0,-5.0,29.91,SSE,157,8.0,10.0,88,0.00,,,0.00,TxWx,2014-01-02 23:22:00,
2014-01-02 18:23:00,-6.0,-10.0,29.82,South,180,14.0,18.0,86,0.00,,,0.00,TxWx,2014-01-02 23:23:00,
2014-01-02 18:24:00,-6.0,-10.0,29.82,South,180,13.0,13.0,86,0.00,,,0.00,TxWx,2014-01-02 23:24:00,
2014-01-02 18:25:00,-6.0,-10.0,29.82,SW,225,3.0,11.0,86,0.00,,,0.00,TxWx,2014-01-02 23:25:00,
2014-01-02 18:26:00,-6.0,-10.0,29.82,SE,135,8.0,11.0,86,0.00,,,0.00,TxWx,2014-01-02 23:26:00,
2014-01-02 18:27:00,-1.0,-5.0,29.92,SSE,157,9.0,13.0,88,0.00,,,0.00,TxWx,2014-01-02 23:27:00,
2014-01-02 18:32:00,-1.0,-5.0,29.91,WSW,247,6.0,12.0,88,0.00,,,0.00,TxWx,2014-01-02 23:32:00,
2014-01-02 18:38:00,-1.0,-5.0,29.91,ESE,112,8.0,11.0,88,0.00,,,0.00,TxWx,2014-01-02 23:38:00,
2014-01-02 18:43:00,-1.0,-5.0,29.91,South,180,8.0,11.0,88,0.00,,,0.00,TxWx,2014-01-02 23:43:00,
2014-01-02 18:48:00,-1.0,-5.0,29.91,SE,135,8.0,9.0,88,0.00,,,0.00,TxWx,2014-01-02 23:48:00,
2014-01-02 18:53:00,-1.0,-5.0,29.91,SSE,157,11.0,11.0,88,0.00,,,0.00,TxWx,2014-01-02 23:53:00,
2014-01-02 18:58:00,-1.0,-5.0,29.91,SE,135,10.0,14.0,88,0.00,,,0.00,TxWx,2014-01-02 23:58:00,
2014-01-02 19:03:00,-1.0,-5.0,29.91,SW,225,11.0,11.0,88,0.00,,,0.00,TxWx,2014-01-03 00:03:00,
2014-01-02 19:08:00,-1.0,-5.0,29.91,WSW,247,5.0,9.0,87,0.00,,,0.00,TxWx,2014-01-03 00:08:00,
2014-01-02 19:13:00,-1.0,-5.0,29.91,SE,135,8.0,10.0,87,0.00,,,0.00,TxWx,2014-01-03 00:13:00,
2014-01-02 19:18:00,-1.0,-5.0,29.90,SE,135,11.0,11.0,87,0.00,,,0.00,TxWx,2014-01-03 00:18:00,
2014-01-02 19:23:00,-1.0,-5.0,29.91,South,180,11.0,13.0,87,0.00,,,0.00,TxWx,2014-01-03 00:23:00,
2014-01-02 19:29:00,-1.0,-5.0,29.91,South,180,8.0,11.0,87,0.00,,,0.00,TxWx,2014-01-03 00:29:00,
2014-01-02 19:34:00,-1.0,-5.0,29.90,SSW,202,6.0,9.0,87,0.00,,,0.00,TxWx,2014-01-03 00:34:00,
2014-01-02 19:39:00,-1.0,-5.0,29.89,SSE,157,10.0,13.0,87,0.00,,,0.00,TxWx,2014-01-03 00:39:00,
2014-01-02 19:44:00,-1.0,-5.0,29.89,SSW,202,6.0,6.0,87,0.00,,,0.00,TxWx,2014-01-03 00:44:00,
2014-01-02 19:49:00,-1.0,-5.0,29.89,SSE,157,7.0,13.0,87,0.00,,,0.00,TxWx,2014-01-03 00:49:00,
2014-01-02 19:54:00,-2.0,-6.0,29.88,South,180,6.0,10.0,87,0.00,,,0.00,TxWx,2014-01-03 00:54:00,
2014-01-02 19:59:00,-2.0,-6.0,29.88,SSE,157,9.0,10.0,87,0.00,,,0.00,TxWx,2014-01-03 00:59:00,
2014-01-02 20:00:00,-6.0,-10.0,29.85,South,180,15.0,15.0,86,0.00,,,0.00,TxWx,2014-01-03 01:00:00,
2014-01-02 20:01:00,-6.0,-10.0,29.85,SSE,157,10.0,13.0,86,0.00,,,0.00,TxWx,2014-01-03 01:01:00,
2014-01-02 20:02:00,-6.0,-10.0,29.85,South,180,11.0,14.0,86,0.00,,,0.00,TxWx,2014-01-03 01:02:00,
2014-01-02 20:03:00,-6.0,-10.0,29.85,South,180,13.0,14.0,86,0.00,,,0.00,TxWx,2014-01-03 01:03:00,
2014-01-02 20:04:00,-2.0,-6.0,29.88,South,180,10.0,11.0,87,0.00,,,0.00,TxWx,2014-01-03 01:04:00,
2014-01-02 20:09:00,-2.0,-6.0,29.89,South,180,9.0,11.0,87,0.00,,,0.00,TxWx,2014-01-03 01:09:00,
2014-01-02 20:11:00,-6.0,-10.0,29.85,South,180,17.0,17.0,86,0.00,,,0.00,TxWx,2014-01-03 01:11:00,
2014-01-02 20:12:00,-6.0,-10.0,29.86,South,180,15.0,18.0,86,0.00,,,0.00,TxWx,2014-01-03 01:12:00,
2014-01-02 20:13:00,-6.0,-10.0,29.86,South,180,15.0,20.0,86,0.00,,,0.00,TxWx,2014-01-03 01:13:00,
2014-01-02 20:15:00,-2.0,-6.0,29.88,SSE,157,9.0,10.0,87,0.00,,,0.00,TxWx,2014-01-03 01:15:00,
2014-01-02 20:17:00,-6.0,-10.0,29.86,SSE,157,15.0,19.0,86,0.00,,,0.00,TxWx,2014-01-03 01:17:00,
2014-01-02 20:18:00,-6.0,-10.0,29.86,SSE,157,10.0,13.0,86,0.00,,,0.00,TxWx,2014-01-03 01:18:00,
2014-01-02 20:19:00,-6.0,-10.0,29.86,SSE,157,14.0,18.0,86,0.00,,,0.00,TxWx,2014-01-03 01:19:00,
2014-01-02 20:20:00,-2.0,-6.0,29.88,SSE,157,14.0,14.0,87,0.00,,,0.00,TxWx,2014-01-03 01:20:00,
2014-01-02 20:22:00,-6.0,-10.0,29.86,SE,135,16.0,18.0,86,0.00,,,0.00,TxWx,2014-01-03 01:22:00,
2014-01-02 20:24:00,-6.0,-10.0,29.86,South,180,26.0,26.0,86,0.00,,,0.00,TxWx,2014-01-03 01:24:00,
2014-01-02 20:25:00,-2.0,-6.0,29.87,South,180,7.0,9.0,87,0.00,,,0.00,TxWx,2014-01-03 01:25:00,
2014-01-02 20:26:00,-6.0,-10.0,29.86,SSE,157,13.0,16.0,86,0.00,,,0.00,TxWx,2014-01-03 01:26:00,
2014-01-02 20:27:00,-6.0,-10.0,29.86,SSE,157,8.0,11.0,85,0.00,,,0.00,TxWx,2014-01-03 01:27:00,
2014-01-02 20:28:00,-6.0,-10.0,29.87,SSE,157,8.0,10.0,85,0.00,,,0.00,TxWx,2014-01-03 01:28:00,
2014-01-02 20:30:00,-2.0,-6.0,29.87,South,180,11.0,11.0,87,0.00,,,0.00,TxWx,2014-01-03 01:30:00,
2014-01-02 20:32:00,-7.0,-11.0,29.87,SSW,202,13.0,14.0,85,0.00,,,0.00,TxWx,2014-01-03 01:32:00,
2014-01-02 20:33:00,-7.0,-11.0,29.87,SSE,157,8.0,11.0,85,0.00,,,0.00,TxWx,2014-01-03 01:33:00,
2014-01-02 20:35:00,-2.0,-6.0,29.86,SSE,157,11.0,14.0,87,0.00,,,0.00,TxWx,2014-01-03 01:35:00,
2014-01-02 20:36:00,-7.0,-11.0,29.87,South,180,14.0,16.0,85,0.00,,,0.00,TxWx,2014-01-03 01:36:00,
2014-01-02 20:37:00,-7.0,-11.0,29.87,SSE,157,10.0,13.0,85,0.00,,,0.00,TxWx,2014-01-03 01:37:00,
2014-01-02 20:38:00,-7.0,-11.0,29.87,SSE,157,11.0,16.0,85,0.00,,,0.00,TxWx,2014-01-03 01:38:00,
2014-01-02 20:40:00,-2.0,-6.0,29.86,South,180,4.0,8.0,87,0.00,,,0.00,TxWx,2014-01-03 01:40:00,
2014-01-02 20:45:00,-2.0,-6.0,29.86,SSE,157,7.0,12.0,87,0.00,,,0.00,TxWx,2014-01-03 01:45:00,
2014-01-02 20:50:00,-2.0,-6.0,29.87,SE,135,10.0,11.0,87,0.00,,,0.00,TxWx,2014-01-03 01:50:00,
2014-01-02 20:55:00,-2.0,-6.0,29.86,SSE,157,8.0,11.0,87,0.00,,,0.00,TxWx,2014-01-03 01:55:00,
2014-01-02 21:01:00,-2.0,-6.0,29.86,SSE,157,5.0,6.0,87,0.00,,,0.00,TxWx,2014-01-03 02:01:00,
2014-01-02 21:06:00,-2.0,-6.0,29.86,ESE,112,6.0,10.0,87,0.00,,,0.00,TxWx,2014-01-03 02:06:00,
2014-01-02 21:11:00,-2.0,-6.0,29.86,South,180,5.0,5.0,87,0.00,,,0.00,TxWx,2014-01-03 02:11:00,
2014-01-02 21:16:00,-2.0,-6.0,29.86,SE,135,7.0,7.0,87,0.00,,,0.00,TxWx,2014-01-03 02:16:00,
2014-01-02 21:21:00,-2.0,-6.0,29.86,SSE,157,14.0,14.0,87,0.00,,,0.00,TxWx,2014-01-03 02:21:00,
2014-01-02 21:27:00,-2.0,-6.0,29.86,SE,135,6.0,8.0,87,0.00,,,0.00,TxWx,2014-01-03 02:27:00,
2014-01-02 21:32:00,-2.0,-6.0,29.85,South,180,6.0,6.0,87,0.00,,,0.00,TxWx,2014-01-03 02:32:00,
2014-01-02 21:37:00,-2.0,-6.0,29.85,South,180,8.0,10.0,87,0.00,,,0.00,TxWx,2014-01-03 02:37:00,
2014-01-02 21:42:00,-2.0,-6.0,29.85,SSW,202,6.0,8.0,87,0.00,,,0.00,TxWx,2014-01-03 02:42:00,
2014-01-02 21:47:00,-2.0,-6.0,29.84,SSW,202,8.0,11.0,87,0.00,,,0.00,TxWx,2014-01-03 02:47:00,
2014-01-02 21:52:00,-2.0,-6.0,29.85,SSE,157,9.0,9.0,87,0.00,,,0.00,TxWx,2014-01-03 02:52:00,
2014-01-02 21:57:00,-2.0,-6.0,29.84,South,180,13.0,15.0,87,0.00,,,0.00,TxWx,2014-01-03 02:57:00,
2014-01-02 22:02:00,-2.0,-6.0,29.84,South,180,8.0,10.0,87,0.00,,,0.00,TxWx,2014-01-03 03:02:00,
2014-01-02 22:08:00,-2.0,-6.0,29.84,SSE,157,16.0,16.0,87,0.00,,,0.00,TxWx,2014-01-03 03:08:00,
2014-01-02 22:13:00,-3.0,-7.0,29.84,SE,135,10.0,10.0,87,0.00,,,0.00,TxWx,2014-01-03 03:13:00,
2014-01-02 22:18:00,-3.0,-7.0,29.84,South,180,13.0,16.0,87,0.00,,,0.00,TxWx,2014-01-03 03:18:00,
2014-01-02 22:23:00,-3.0,-7.0,29.83,SE,135,8.0,10.0,87,0.00,,,0.00,TxWx,2014-01-03 03:23:00,
2014-01-02 22:28:00,-3.0,-7.0,29.84,SSE,157,9.0,9.0,87,0.00,,,0.00,TxWx,2014-01-03 03:28:00,
2014-01-02 22:33:00,-3.0,-7.0,29.84,SSE,157,8.0,10.0,87,0.00,,,0.00,TxWx,2014-01-03 03:33:00,
2014-01-02 22:38:00,-3.0,-7.0,29.84,SE,135,6.0,8.0,87,0.00,,,0.00,TxWx,2014-01-03 03:38:00,
2014-01-02 22:43:00,-3.0,-7.0,29.84,SE,135,9.0,11.0,87,0.00,,,0.00,TxWx,2014-01-03 03:43:00,
2014-01-02 22:48:00,-3.0,-7.0,29.83,South,180,12.0,14.0,87,0.00,,,0.00,TxWx,2014-01-03 03:48:00,
2014-01-02 22:53:00,-3.0,-7.0,29.84,SSE,157,9.0,10.0,87,0.00,,,0.00,TxWx,2014-01-03 03:53:00,
2014-01-02 22:58:00,-3.0,-7.0,29.83,SSE,157,10.0,13.0,87,0.00,,,0.00,TxWx,2014-01-03 03:58:00,
2014-01-02 23:04:00,-3.0,-7.0,29.83,SE,135,9.0,9.0,87,0.00,,,0.00,TxWx,2014-01-03 04:04:00,
2014-01-02 23:09:00,-4.0,-8.0,29.82,SE,135,7.0,7.0,87,0.00,,,0.00,TxWx,2014-01-03 04:09:00,
2014-01-02 23:14:00,-4.0,-8.0,29.83,SE,135,8.0,10.0,87,0.00,,,0.00,TxWx,2014-01-03 04:14:00,
2014-01-02 23:19:00,-4.0,-8.0,29.83,SE,135,11.0,12.0,87,0.00,,,0.00,TxWx,2014-01-03 04:19:00,
2014-01-02 23:24:00,-4.0,-8.0,29.83,SSE,157,16.0,16.0,87,0.00,,,0.00,TxWx,2014-01-03 04:24:00,
2014-01-02 23:29:00,-4.0,-8.0,29.83,SSE,157,10.0,13.0,87,0.00,,,0.00,TxWx,2014-01-03 04:29:00,
2014-01-02 23:34:00,-4.0,-8.0,29.83,SSE,157,8.0,11.0,87,0.00,,,0.00,TxWx,2014-01-03 04:34:00,
2014-01-02 23:39:00,-4.0,-8.0,29.82,SSE,157,13.0,13.0,86,0.00,,,0.00,TxWx,2014-01-03 04:39:00,
2014-01-02 23:44:00,-4.0,-8.0,29.82,SSE,157,11.0,15.0,86,0.00,,,0.00,TxWx,2014-01-03 04:44:00,
2014-01-02 23:50:00,-4.0,-8.0,29.83,SE,135,6.0,6.0,86,0.00,,,0.00,TxWx,2014-01-03 04:50:00,
2014-01-02 23:55:00,-4.0,-8.0,29.83,SSE,157,9.0,18.0,86,0.00,,,0.00,TxWx,2014-01-03 04:55:00,